This demonstration page uses our WeatherBlox Daily Observations layout. Learn more.

Left ArrowRight Arrow

Hourly Observations for November 30, 2022

Temp ( °F °C ) Dew Point ( °F °C ) Humidity (%) Winds ( mph kmh ) Pressure ( in mb ) Visibility ( mi km ) Precip ( " mm )
12:15 am 00:15 Clear 12 -11.1 7 -14 79 79 NW 7 11 30.36 1028 10 16 0.00 0.00
12:35 am 00:35 Clear 11 -11.8 6 -14.5 80 80 WNW 6 9 30.38 1029 10 16 0.00 0.00
12:55 am 00:55 Clear 9 -12.6 5 -15 82 82 WNW 7 11 30.39 1029 10 16 0.00 0.00
1:15 am 01:15 Clear 9 -12.6 5 -15 82 82 WNW 9 15 30.40 1030 10 16 0.00 0.00
1:35 am 01:35 Clear 10 -12.2 5 -14.9 80 80 WNW 8 13 30.40 1029 10 16 0.00 0.00
1:55 am 01:55 Clear 9 -12.7 5 -15.2 81 81 WNW 8 13 30.39 1029 10 16 0.00 0.00
2:15 am 02:15 Clear 10 -12.2 5 -14.8 81 81 WNW 9 15 30.41 1030 10 16 0.00 0.00
2:35 am 02:35 Clear 11 -11.6 6 -14.5 79 79 WNW 10 17 30.41 1030 10 16 0.00 0.00
2:55 am 02:55 Clear 10 -12 6 -14.7 80 80 WNW 10 17 30.42 1030 10 16 0.00 0.00
3:15 am 03:15 Clear 10 -12 5 -14.9 79 79 WNW 9 15 30.42 1030 10 16 0.00 0.00
3:35 am 03:35 Clear 11 -11.5 5 -14.8 76 76 WNW 12 19 30.44 1031 10 16 0.00 0.00
3:55 am 03:55 Clear 10 -12 5 -15.1 78 78 WNW 9 15 30.45 1031 10 16 0.00 0.00
4:15 am 04:15 Clear 10 -12.5 4 -15.5 78 78 NW 9 15 30.46 1031 10 16 0.00 0.00
4:35 am 04:35 Clear 9 -12.6 4 -15.6 78 78 NW 8 13 30.47 1032 10 16 0.00 0.00
4:55 am 04:55 Clear 9 -13 3 -16 78 78 NW 8 13 30.47 1032 10 16 0.00 0.00
5:15 am 05:15 Clear 7 -13.7 2 -16.5 79 79 NW 6 9 30.49 1033 10 16 0.00 0.00
5:35 am 05:35 Clear 7 -13.9 2 -16.7 79 79 NW 7 11 30.50 1033 10 16 0.00 0.00
5:55 am 05:55 Clear 8 -13.1 3 -16.2 77 77 NW 7 11 30.50 1033 10 16 0.00 0.00
6:15 am 06:15 Clear 8 -13.5 2 -16.5 78 78 WNW 7 11 30.50 1033 10 16 0.00 0.00
6:35 am 06:35 Clear 6 -14.3 1 -17 80 80 WNW 6 9 30.52 1033 10 16 0.00 0.00
6:55 am 06:55 Clear 5 -14.8 1 -17.5 80 80 WNW 7 11 30.54 1034 10 16 0.00 0.00
7:15 am 07:15 Clear 6 -14.5 1 -17.2 80 80 NW 8 13 30.54 1034 10 16 0.00 0.00
7:35 am 07:35 Clear 6 -14.6 1 -17.4 79 79 WNW 7 11 30.54 1034 10 16 0.00 0.00
7:55 am 07:55 Sunny 5 -14.9 1 -17.5 80 80 WNW 7 11 30.56 1035 10 16 0.00 0.00
8:15 am 08:15 Sunny 6 -14.3 1 -17 80 80 W 6 9 30.55 1035 10 16 0.00 0.00
8:35 am 08:35 Sunny 8 -13.1 3 -16 79 79 WNW 5 7 30.55 1034 10 16 0.00 0.00
8:55 am 08:55 Sunny 10 -12.1 4 -15.4 76 76 WNW 7 11 30.56 1035 10 16 0.00 0.00
9:15 am 09:15 Sunny 12 -11.2 5 -14.9 74 74 WNW 8 13 30.56 1035 10 16 0.00 0.00
9:35 am 09:35 Sunny 14 -9.9 7 -13.9 72 72 WNW 8 13 30.54 1034 10 16 0.00 0.00
9:55 am 09:55 Sunny 16 -8.9 8 -13.4 70 70 W 5 7 30.54 1034 10 16 0.00 0.00
10:15 am 10:15 Sunny 18 -7.6 8 -13.1 65 65 W 8 13 30.54 1034 10 16 0.00 0.00
10:35 am 10:35 Sunny 20 -6.7 9 -12.7 62 62 W 6 9 30.53 1034 10 16 0.00 0.00
10:55 am 10:55 Sunny 21 -5.9 9 -12.6 59 59 W 6 9 30.52 1033 10 16 0.00 0.00
11:15 am 11:15 Sunny 22 -5.4 9 -12.8 56 56 W 6 9 30.51 1033 10 16 0.00 0.00
11:35 am 11:35 Sunny 24 -4.6 10 -12.5 54 54 WNW 6 9 30.50 1033 10 16 0.00 0.00
11:55 am 11:55 Sunny 25 -4 11 -11.4 56 56 WSW 5 7 30.48 1032 10 16 0.00 0.00
12:15 pm 12:15 Sunny 25 -3.7 13 -10.8 58 58 W 3 6 30.48 1032 10 16 0.00 0.00
12:35 pm 12:35 Sunny 26 -3.4 13 -10.6 57 57 WSW 6 9 30.46 1032 10 16 0.00 0.00
12:55 pm 12:55 Sunny 27 -2.8 14 -10.1 57 57 SW 7 11 30.45 1031 10 16 0.00 0.00
1:15 pm 13:15 Sunny 28 -2.4 14 -9.9 56 56 WSW 5 7 30.43 1031 10 16 0.00 0.00
1:35 pm 13:35 Sunny 28 -2.4 13 -10.4 54 54 SW 5 7 30.42 1030 10 16 0.00 0.00
1:55 pm 13:55 Sunny 29 -1.5 13 -10.4 51 51 SSW 5 7 30.40 1030 10 16 0.00 0.00
2:15 pm 14:15 Sunny 30 -1.1 14 -10.1 50 50 S 5 7 30.39 1029 10 16 0.00 0.00
2:35 pm 14:35 Sunny 31 -0.8 15 -9.7 51 51 SSW 3 6 30.37 1029 10 16 0.00 0.00
2:55 pm 14:55 Sunny 31 -0.5 14 -9.8 49 49 S 6 9 30.36 1028 10 16 0.00 0.00
3:15 pm 15:15 Sunny 31 -0.4 15 -9.3 51 51 SSE 5 7 30.35 1028 10 16 0.00 0.00
3:35 pm 15:35 Sunny 32 -0.1 15 -9.6 49 49 SSE 7 11 30.35 1028 10 16 0.00 0.00
3:55 pm 15:55 Sunny 32 -0.1 15 -9.6 49 49 S 7 11 30.34 1027 10 16 0.00 0.00
4:15 pm 16:15 Sunny 31 -0.3 15 -9.3 51 51 SSE 8 13 30.34 1027 10 16 0.00 0.00
4:35 pm 16:35 Sunny 31 -0.5 16 -9.1 52 52 SSE 8 13 30.33 1027 10 16 0.00 0.00
4:55 pm 16:55 Sunny 30 -0.9 17 -8.6 56 56 SE 7 11 30.35 1028 10 16 0.00 0.00
5:15 pm 17:15 Clear 29 -1.8 17 -8.4 61 61 SE 8 13 30.36 1028 10 16 0.00 0.00
5:35 pm 17:35 Clear 27 -3 16 -9 63 63 SSE 9 15 30.37 1028 10 16 0.00 0.00
5:55 pm 17:55 Clear 26 -3.5 15 -9.5 63 63 SSE 9 15 30.35 1028 10 16 0.00 0.00
6:15 pm 18:15 Clear 25 -3.9 14 -9.9 63 63 SSE 9 15 30.36 1028 10 16 0.00 0.00
6:35 pm 18:35 Clear 24 -4.3 14 -10 64 64 SSE 8 13 30.35 1028 10 16 0.00 0.00
6:55 pm 18:55 Clear 24 -4.6 14 -10.2 65 65 SSE 8 13 30.35 1028 10 16 0.00 0.00
7:15 pm 19:15 Clear 24 -4.5 13 -10.3 64 64 SSE 10 17 30.35 1028 10 16 0.00 0.00
7:35 pm 19:35 Clear 25 -4 13 -10.5 60 60 SSE 12 19 30.34 1027 10 16 0.00 0.00
7:55 pm 19:55 Clear 25 -4.1 13 -10.7 60 60 SSE 10 17 30.34 1027 10 16 0.00 0.00
8:15 pm 20:15 Clear 24 -4.3 13 -10.8 60 60 SSE 12 19 30.33 1027 10 16 0.00 0.00
8:35 pm 20:35 Clear 24 -4.2 12 -11 59 59 SSE 12 19 30.32 1027 10 16 0.00 0.00
8:55 pm 20:55 Clear 25 -4.1 12 -11 59 59 SE 9 15 30.32 1027 10 16 0.00 0.00
9:15 pm 21:15 Clear 24 -4.6 13 -10.7 62 62 SE 8 13 30.32 1027 10 16 0.00 0.00
9:35 pm 21:35 Clear 24 -4.5 13 -10.5 63 63 SSE 9 15 30.32 1027 10 16 0.00 0.00
9:55 pm 21:55 Clear 24 -4.3 14 -10 64 64 SSE 13 20 30.31 1026 10 16 0.00 0.00
10:15 pm 22:15 Clear 26 -3.5 15 -9.7 62 62 SSE 15 24 30.28 1026 10 16 0.00 0.00
10:35 pm 22:35 Clear 26 -3.5 15 -9.6 63 63 SSE 14 22 30.27 1025 10 16 0.00 0.00
10:55 pm 22:55 Clear 25 -3.8 15 -9.5 64 64 SSE 12 19 30.27 1025 10 16 0.00 0.00
11:15 pm 23:15 Clear 25 -3.7 16 -9.1 66 66 SSE 12 19 30.26 1025 10 16 0.00 0.00
11:35 pm 23:35 Clear 25 -3.7 16 -8.9 67 67 SSE 12 19 30.26 1025 10 16 0.00 0.00
11:55 pm 23:55 Clear 27 -3 16 -8.7 65 65 SSE 12 19 30.25 1024 10 16 0.00 0.00

Powered by AerisWeather